Regional Weather Roundup
Issued by NWS

Home | Current Version | Previous Version | Graphics & Text | Print | Product List | Glossary On
Versions: 1 2 3 4 5 6 7 8 9 10 11 12 13 14 15 16 17 18 19 20 21 22 23 24 25 26 27 28 29 30 31 32 33 34 35 36 37 38 39 40 41 42 43 44 45 46 47 48 49 50
000
ASUS43 KMPX 221110
RWRMN
WEATHER ROUNDUP FOR MINNESOTA
NATIONAL WEATHER SERVICE TWIN CITIES/CHANHASSEN MN
500 AM CST SUN JAN 22 2017


NOTE: "FAIR" INDICATES FEW OR NO CLOUDS BELOW 12,000 FEET WITH NO
SIGNIFICANT WEATHER AND/OR OBSTRUCTIONS TO VISIBILITY. N/A MEANS
CURRENT SKY AND/OR WEATHER CONDITIONS ARE NOT AVAILABLE.

MNZ060>063-068>070-221200-
   Twin Cities Metro

CITY           SKY/WX    TMP DP  RH WIND       PRES   REMARKS
TWIN CITIES    CLOUDY    35  33  92 NW6       29.61R FOG     WCI  30
ST PAUL        CLOUDY    34  34 100 NW7       29.62R WCI  28
CRYSTAL        CLOUDY    34  32  92 NW3       29.60R FOG
BLAINE         CLOUDY    36  36 100 NW3       29.61R FOG
LAKEVILLE      FOG       34  34 100 NW5       29.60R VSB 1   WCI  30
EDEN PRAIRIE   FOG       35  34  96 NW6       29.60R VSB 1   WCI  30
SOUTH ST PAUL  CLOUDY    36  35  99 CALM      29.60R
LAKE ELMO      CLOUDY    34  34 100 N3        29.61R FOG
$$
MNZ001>005-007-008-013>017-022>024-027-028-221200-
   Northwest Minnesota

CITY           SKY/WX    TMP DP  RH WIND       PRES   REMARKS
BEMIDJI        FOG       32  32 100 NW3       29.62F VSB 1/2
HALLOCK        FOG       34  34 100 CALM      29.64S VSB 1/2
ROSEAU         CLOUDY    34  28  80 CALM      29.65S HAZE
WARROAD        FOG       34  28  80 CALM      29.66R VSB 3/4
THIEF RVR FALL FOG       33  32  96 CALM      29.65R VSB 1/4
CROOKSTON      FOG       34  34 100 CALM      29.66R VSB 1/4
FOSSTON        FOG       30  30 100 CALM      29.64R VSB 1/2
DETROIT LAKES  FOG       34  34 100 NW3       29.64S VSB 3/4
MOORHEAD       FOG       34  32  93 CALM      29.66S VSB 1/4
PARK RAPIDS    FOG       34  31  88 W5        29.62R VSB 1/2 WCI  30
MAHNOMEN       FOG       32  32  99 CALM      29.63S VSB 1/2
$$
MNZ006-009>011-018-025>026-221200-
   North Central Minnesota

CITY           SKY/WX    TMP DP  RH WIND       PRES   REMARKS
BAUDETTE       FOG       33  32  96 NW3       29.63S VSB 3/4
FLAG ISLAND    FOG       32  32 100 CALM      29.65R VSB 3/4
INTL FALLS     FOG       34  33  96 NE3       29.63R VSB 1/4
WASKISH        CLOUDY    34  34 100 CALM      29.64R FOG
BIG FORK       CLOUDY    34  34 100 CALM      29.62S FOG
LONGVILLE      FOG       34  34 100 CALM      29.61S VSB 3/4
GRAND RAPIDS   FOG       33  33 100 CALM      29.63S VSB 1
CRANE LAKE     CLOUDY    30  30 100 CALM      29.64S FOG
ORR            LGT SNOW  32  30  93 CALM      29.60R
COOK           DRIZZLE   34  34 100 CALM      29.62R
WALKER         FOG       33  33 100 CALM      29.62S VSB 3/4
$$
MNZ012-019>021-037-221200-
   Northeast Minnesota

CITY           SKY/WX    TMP DP  RH WIND       PRES   REMARKS
DULUTH         DRIZZLE   34  34 100 NW3       29.59R FOG
ELY            LGT SNOW  32  32 100 CALM      29.60S
HIBBING        CLOUDY    32  32 100 N5        29.60S FOG     WCI  27
EVELETH        CLOUDY    35  35  99 CALM      29.61S
DULUTH HARBOR  CLOUDY    36  34  93 CALM      29.62R
TWO HARBORS    CLOUDY    37  34  87 CALM      29.57S
SILVER BAY     DRIZZLE   36  36 100 CALM      29.58R
GRAND MARAIS     N/A     37  33  85 VRB3      29.60R
G MARAIS ARPRT LGT SNOW  30  28  93 N3        29.57R
$$
MNZ029>031-032-039>041-046>048-054>057-064-221200-
   West Central Minnesota

CITY           SKY/WX    TMP DP  RH WIND       PRES   REMARKS
FERGUS FALLS   FOG       34  34 100 CALM      29.68S VSB 1/4
WHEATON        CLOUDY    39  39 100 W5        29.68R FOG
MORRIS         FOG       34  34 100 NW8       29.64R VSB 1/2 WCI  27
ALEXANDRIA     FOG       34  34 100 N3        29.63S VSB 1
ELBOW LAKE     SNOW      32  32 100 W5        29.64S VSB 1/2 WCI  27
WADENA         CLOUDY    32  32 100 CALM      29.63R FOG
GLENWOOD       CLOUDY    34  34 100 NW5       29.63S FOG     WCI  30
APPLETON       CLOUDY    36  34  93 N6        29.65R FOG
ORTONVILLE     CLOUDY    34  32  93 CALM      29.65R FOG
MADISON        CLOUDY    36  36 100 NW5       29.65R FOG
WILLMAR        CLOUDY    34  34 100 CALM      29.64R FOG
$$
MNZ033>034-036-042>043-049>051-058-059-221200-
   Central Minnesota

CITY           SKY/WX    TMP DP  RH WIND       PRES   REMARKS
ST CLOUD       CLOUDY    33  33 100 N8        29.61R FOG     WCI  26
SAUK CENTRE    FOG       33  33 100 NW6       29.63S VSB 3/4 WCI  27
PAYNESVILLE    FOG       33  33 100 NW3       29.63R VSB 1/2
AITKIN         CLOUDY    36  34  93 CALM      29.60S
PINE RIVER     CLOUDY    34  34 100 CALM      29.66R
BRAINERD       CLOUDY    33  33 100 CALM      29.61S FOG
STAPLES        CLOUDY    32  32 100 W5        29.63R FOG     WCI  27
LONG PRAIRIE   LGT SNOW  32  32 100 W5        29.63S VSB 3/4 WCI  27
LITTLE FALLS   FOG       32  32 100 W3        29.63R VSB 3/4
LITCHFIELD     CLOUDY    36  36 100 NW3       29.63R FOG
BUFFALO        CLOUDY    34  33  97 CALM      29.63R FOG
MAPLE LAKE     CLOUDY    35  35 100 CALM      29.63R FOG
HUTCHINSON     CLOUDY    34  34 100 NW6       29.63S FOG     WCI  29
$$
MNZ037-044-045-052-053-221200-
   East Central Minnesota

CITY           SKY/WX    TMP DP  RH WIND       PRES   REMARKS
PRINCETON      CLOUDY    36  34  93 NW3       29.61S FOG
MORA           CLOUDY    34  32  93 N3        29.63R
CAMBRIDGE      CLOUDY    36  36 100 NW3       29.60R FOG
RUSH CITY      CLOUDY    34  34 100 N6        29.61R FOG     WCI  29
MOOSE LAKE     CLOUDY    34  32  93 N3        29.59S FOG
HINCKLEY       CLOUDY    34  34 100 N5        29.61R FOG     WCI  30
CLOQUET        CLOUDY    34  34 100 CALM      29.60S FOG
MCGREGOR       CLOUDY    34  34 100 CALM      29.61S VSB 3/4
$$
MNZ071>073-080-081-089-090-097-098-221200-
   Southwest Minnesota

CITY           SKY/WX    TMP DP  RH WIND       PRES   REMARKS
MONTEVIDEO     FOG       34  34 100 N7        29.65S VSB 1/2 WCI  28
GRANITE FALLS  FOG       35  35 100 NW8       29.65R VSB 1   WCI  28
CANBY          CLOUDY    34  34  98 CALM      29.65S FOG
MARSHALL       CLOUDY    33  33 100 NW9       29.64R FOG     WCI  25
REDWOOD FALLS  CLOUDY    34  33  96 NW8       29.62S FOG     WCI  27
OLIVIA         FOG       34  34 100 N6        29.62S VSB 3/4 WCI  29
PIPESTONE      CLOUDY    34  32  93 N10       29.62R FOG     WCI  26
WINDOM         FOG       34  34 100 NW8       29.61S VSB 1/2 WCI  27
WORTHINGTON    CLOUDY    33  32  96 NW9       29.62R WCI  25
JACKSON        FOG       32  32 100 NW9       29.61R VSB 3/4 WCI  24
TRACY          FOG       34  34 100 NW8       29.63R VSB 1/2 WCI  27
SLAYTON        CLOUDY    32  32 100 NW7       29.62R FOG     WCI  26
$$
MNZ065>067-074>077-082>085-091>093-221200-
   South Central Minnesota

CITY           SKY/WX    TMP DP  RH WIND       PRES   REMARKS
MANKATO        FOG       34  33  96 NW7       29.61R VSB 1/4 WCI  28
NEW ULM        CLOUDY    34  34 100 NW6       29.62R FOG     WCI  29
ST JAMES       FOG       34  34 100 NW7       29.63R VSB 3/4 WCI  28
FAIRMONT       CLOUDY    34  33  96 NW9       29.61S FOG     WCI  27
GLENCOE        CLOUDY    35  35 100 NW7       29.61S FOG     WCI  29
OWATONNA       FOG       34  32  93 CALM      29.59S VSB 1/4
WASECA         FOG       32  32 100 NW3       29.61R VSB 1/2
ALBERT LEA     FOG       34  34 100 CALM      29.59R VSB 1/4
$$
MNZ078>079-086>088-094>096-221200-
   Southeast Minnesota

CITY           SKY/WX    TMP DP  RH WIND       PRES   REMARKS
ROCHESTER      FOG       32  32 100 W5        29.58R VSB 1/2 WCI  27
RED WING       FOG       36  34  93 CALM      29.59S VSB 1/2
STANTON        FOG       35  34  96 CALM      29.59R VSB 3/4
DODGE CENTER   FOG       34  34 100 CALM      29.58S VSB 1/4
WINONA         CLOUDY    34  34 100 NW3       29.59S FOG
AUSTIN         MIX PCPN  34  32  93 CALM      29.58S VSB 1/2
PRESTON        CLOUDY    32  32  99 W6        29.58S FOG     WCI  27
$$
ABBREVIATIONS USED IN REMARKS
   TC - TEMPERATURES IN CELSIUS
  WCI - WIND CHILL INDEX
   HX - HEAT INDEX
  VSB - VISIBILITY
$$




USA.gov is the U.S. government's official web portal to all federal, state and local government web resources and services.